STARLINK-2292, 48023

Orbit data source: Space-Track

STARLINK-2292, 48023 is a payload satellite owned by SpaceX/Seattle (US) in LEO that was launched on Wed, 24 Mar 2021 UTC via an FALCON 9 launch vehicle from the Air Force Eastern Test Range (AFETR). Payload-class satellites include a variety of spacecraft equipped with specific instruments for various scientific and technological missions. These include communications satellites like Starlink; space stations such as the ISS; scientific satellites like the Hubble; Earth observation satellites from companies like Planet Labs, Umbra, and HawkEye 360; GPS; miniature CubeSats for education and research; and military/defense satellites.

Loading next visibility...
Identifier
48023, 2021-024AY
Orbit
LEO
Country
Flag of USUS
Related business
Manufacturer
SpaceX/Seattle
Mission
Operational Commercial Communications
Bus & Motor
STARLINK, Unknown motor
Mass
260 kg wet, ~248 kg dry
Launch date (UTC)
2021-03-24 (5 years ago)
Launch vehicle
FALCON 9
Launch site
Air Force Eastern Test Range (AFETR)
Object type
Payload
Rocket body
Debris
Shape & HBR
Box + 1 Pan, 10.1 m
Radar Cross Section
13.562 m², Large (>1 m²)

Expand to show TLE details & history
Last TLE update: 17 hours ago

TLE from 17 hours ago
0 STARLINK-2292
1 48023U 21024AY  25346.74212013  .00007065  00000-0  49258-3 0  9995
2 48023  53.0561   1.9422 0001384 100.3345 259.7801 15.06407651261522
Epoch: 2025-12-12T17:48Z
TLE epoch observation values (Epoch: 2025-12-12T17:48:39.179Z)
Latitude
0.00007°
Longitude
13.09962°
Altitude
548.238 km
Speed
7.589 km/s
True Right ascension
00h 07m 46s
True Declination
0° 00' 00"
Sunlit
Object was in daylight at epoch
Visualization orbit readout
Latitude
Unknown
Longitude
Unknown
Altitude
Unknown
Speed
Unknown
Apparent Right ascension
Unknown
Apparent Declination
Unknown
Sunlit
N/A
Visualization observer readout
Local Sidereal Time
09:14:38
Azimuth
Unknown
Elevation
Unknown
Doppler factor
Unknown
Orbital elements
Apogee altitude
548.417 km
Perigee altitude
546.5 km
Semi-major axis
6,925.596 km
Eccentricity
0.00014
Inclination
53.0561°
RAAN
1.9422°
Arg. of periapsis
100.3345°
True anomaly
259.76449°
Mean anomaly
259.7801°
Eccentric anomaly
259.7723°
Mean motion
3.7658 °/min
Orbital period
95.6 mins
BSTAR
0.00049258
Loading maneuver chart data...
Computing Atmospheric mass density...

Documentation

Showing up to 5 results
|